This is the latest recevied weather packets stored in our database for station/object KD8UTJ. If no packets are shown the sender has not sent any weather packets the latest 1 day(s).
| Time | Temp. | Humidity | Pressure | Rain* | Wind** | Luminosity | Snow |
|---|---|---|---|---|---|---|---|
| 1778041082 | 23.89° C | 75% | 1018.7 hPa | 0 mm | 0.89 m/s, 112° | 0 W/m² | - |
| 1778040779 | 23.89° C | 75% | 1018.6 hPa | 0 mm | 2.24 m/s, 123° | 0 W/m² | - |
| 1778040476 | 23.89° C | 75% | 1018.7 hPa | 0 mm | 1.79 m/s, 46° | 0 W/m² | - |
| 1778040174 | 23.89° C | 75% | 1018.8 hPa | 0 mm | 1.34 m/s, 117° | 0 W/m² | - |
| 1778039870 | 23.89° C | 76% | 1018.8 hPa | 0 mm | 1.79 m/s, 117° | 0 W/m² | - |
| 1778039567 | 23.89° C | 75% | 1018.6 hPa | 0 mm | 1.34 m/s, 141° | 0 W/m² | - |
| 1778039264 | 23.89° C | 74% | 1018.7 hPa | 0 mm | 2.68 m/s, 99° | 0 W/m² | - |
| 1778038961 | 23.89° C | 74% | 1018.7 hPa | 0 mm | 2.24 m/s, 95° | 0 W/m² | - |
| 1778038658 | 23.89° C | 74% | 1019 hPa | 0 mm | 1.79 m/s, 122° | 0 W/m² | - |
| 1778038356 | 23.89° C | 74% | 1018.9 hPa | 0 mm | 2.24 m/s, 76° | 0 W/m² | - |
| 1778038052 | 23.89° C | 74% | 1018.9 hPa | 0 mm | 0.45 m/s, 99° | 0 W/m² | - |
| 1778037749 | 23.89° C | 74% | 1018.7 hPa | 0 mm | 1.34 m/s, 120° | 0 W/m² | - |
| 1778037446 | 23.89° C | 74% | 1019 hPa | 0 mm | 0.89 m/s, 112° | 0 W/m² | - |
| 1778037143 | 23.89° C | 74% | 1018.9 hPa | 0 mm | 1.34 m/s, 119° | 0 W/m² | - |
| 1778036841 | 23.89° C | 74% | 1018.7 hPa | 0 mm | 0 m/s | 0 W/m² | - |
| 1778036539 | 23.89° C | 73% | 1018.5 hPa | 0 mm | 0.89 m/s, 100° | 0 W/m² | - |
| 1778036235 | 23.89° C | 74% | 1018.6 hPa | 0 mm | 0.45 m/s, 132° | 0 W/m² | - |
| 1778035932 | 23.89° C | 74% | 1018.7 hPa | 0 mm | 1.34 m/s, 91° | 0 W/m² | - |
| 1778035629 | 23.89° C | 74% | 1018.8 hPa | 0 mm | 1.79 m/s, 74° | 0 W/m² | - |
| 1778035325 | 23.89° C | 75% | 1018.8 hPa | 0 mm | 0.45 m/s, 147° | 0 W/m² | - |
| 1778035021 | 23.89° C | 75% | 1018.6 hPa | 0 mm | 0.45 m/s, 89° | 0 W/m² | - |
| 1778034719 | 23.89° C | 75% | 1018.7 hPa | 0 mm | 1.79 m/s, 121° | 0 W/m² | - |
| 1778034416 | 23.89° C | 75% | 1018.6 hPa | 0 mm | 0.45 m/s, 79° | 0 W/m² | - |
| 1778034113 | 23.89° C | 75% | 1018.6 hPa | 0 mm | 0.89 m/s, 137° | 0 W/m² | - |
| 1778033811 | 23.89° C | 75% | 1018.4 hPa | 0 mm | 0.89 m/s, 104° | 0 W/m² | - |
* Rain latest hour (hover to see other rain measurements)
** Current wind speed in m/s (hover to see current wind gust speed)